Cloud_Cover
100 100 100 92 100 100 100 100 12 4 3 2 0 5 5 27 59 43 7 69 64 5 27 5 5 1 0 0 5 4 0 1 0 0 1 0 7 2 9 4 0 0 1 0 2 5 22 38 5
54 62 100 67 63 100 100 100 100 3 0 1 2 11 7 15 37 64 19 12 5 6 36 32 0 2 2 2 5 0 0 4 0 0 2 0 4 12 17 0 0 0 9 0 2 5 6 6 4
43 29 88 100 98 100 100 100 18 0 0 1 5 31 62 100 75 51 6 22 7 17 50 30 15 0 2 5 1 0 0 2 5 5 0 0 3 15 35 32 1 0 0 0 0 4 5 5 1
91 5 6 8 26 100 100 100 5 0 0 0 5 30 86 28 6 5 0 5 14 60 43 7 5 3 0 2 19 2 0 0 2 5 5 3 5 18 99 14 5 0 0 0 0 2 5 5 97
97 5 5 62 100 100 100 92 6 2 0 0 2 97 100 60 12 5 1 2 38 100 61 7 4 2 0 0 78 0 0 4 5 5 2 0 21 100 39 5 5 5 5 5 7 5 97 99 100
99 5 6 78 100 100 100 100 73 5 0 0 0 7 7 4 4 78 13 61 76 95 54 28 3 3 0 0 35 0 0 0 0 1 0 13 82 27 5 5 5 5 5 18 80 92 100 100 100
46 68 7 66 100 100 100 100 40 10 0 0 0 0 0 4 37 60 59 95 93 94 58 11 16 6 0 1 0 0 0 0 0 0 74 79 0 0 0 0 3 5 62 5 5 49 100 100 100
100 100 23 5 97 100 100 100 75 0 0 0 0 0 0 0 85 98 94 72 22 46 32 42 36 5 14 24 2 0 0 0 1 62 100 66 28 13 0 0 1 3 37 27 94 37 99 100 100
71 100 100 17 92 100 100 100 100 4 0 0 0 0 0 3 99 100 100 100 100 35 58 70 65 40 40 60 26 6 4 12 64 100 100 80 96 83 97 84 65 57 44 95 100 100 100 99 95
100 100 100 100 100 100 100 100 16 2 0 0 0 0 4 59 100 100 96 100 100 99 92 100 72 96 95 100 74 91 66 67 79 100 94 100 100 100 100 100 100 100 100 100 100 100 68 99 90
100 100 98 100 97 82 100 100 68 5 0 0 0 0 42 99 100 100 100 35 44 93 100 100 34 97 100 100 100 100 100 95 100 99 100 100 100 69 68 100 71 94 99 71 48 64 81 100 74
100 99 52 100 100 100 93 100 31 5 0 0 0 0 19 100 100 100 100 59 99 100 100 100 97 100 92 100 100 100 100 100 100 100 97 36 100 100 92 99 100 82 23 9 5 19 46 77 89
99 93 100 100 100 100 100 100 100 5 2 0 0 0 1 3 100 100 100 46 100 100 100 100 100 99 100 100 100 100 100 100 100 100 37 80 100 100 100 100 30 14 4 15 68 96 99 100 100
100 100 100 100 99 80 79 100 100 70 7 3 0 0 4 0 91 100 100 100 95 100 100 88 100 100 99 100 98 100 100 100 100 100 100 100 99 100 98 10 8 12 31 97 100 100 84 80 100
61 100 89 100 100 100 100 100 100 100 100 14 0 0 6 13 3 99 97 100 35 81 100 100 100 100 100 100 97 100 100 100 100 100 100 100 41 64 5 5 9 37 49 54 32 4 33 100 100
100 92 100 52 96 46 100 40 100 100 100 100 62 6 5 31 34 8 60 100 87 100 100 100 100 95 99 100 100 100 100 100 100 100 100 100 21 5 5 5 5 17 9 5 13 2 4 94 100
100 99 94 99 88 99 100 100 100 86 100 100 86 35 29 35 58 29 35 100 100 100 100 100 100 100 100 100 100 100 100 100 100 100 100 100 84 72 8 5 13 5 5 5 43 86 5 4 98
100 100 86 8 52 97 94 100 98 75 7 80 45 62 18 50 58 5 98 100 100 100 100 100 100 100 100 100 100 100 100 100 100 100 100 100 100 100 52 5 53 42 30 7 4 0 3 5 6
100 100 100 100 72 16 22 100 97 67 5 0 5 5 12 42 100 85 88 100 100 100 100 100 100 100 100 100 100 100 100 100 100 100 100 100 100 100 22 8 30 67 100 41 5 5 0 0 0
77 96 93 100 100 100 85 30 23 94 76 26 5 5 71 80 72 94 47 100 100 100 100 100 100 100 100 100 100 100 100 100 100 100 100 100 100 100 43 46 91 74 80 20 5 5 2 0 0
100 65 62 100 100 100 80 84 28 50 100 100 5 2 28 77 85 99 77 99 98 100 100 100 100 100 100 100 100 100 100 100 100 100 100 100 100 100 60 32 54 100 38 5 5 5 5 5 2
92 9 5 24 100 100 100 86 33 7 30 85 79 5 0 6 12 23 18 96 100 100 100 100 100 100 100 100 100 85 100 100 100 100 100 100 100 100 100 100 100 100 55 5 2 5 5 12 5
69 70 24 100 100 100 100 100 6 5 82 5 0 1 0 0 3 36 45 88 100 100 100 100 100 100 100 100 100 100 100 100 100 100 100 100 100 100 100 100 100 96 79 50 4 5 5 87 31
100 100 100 100 100 100 100 100 100 53 18 57 5 1 0 0 2 41 83 100 100 100 100 100 100 100 100 100 100 100 100 100 100 100 100 100 100 100 100 100 95 7 14 17 16 24 88 100 100
100 100 100 100 100 100 100 100 100 100 100 100 95 91 38 4 12 100 100 100 100 100 100 100 100 100 100 100 100 100 100 100 100 100 100 100 100 100 100 100 99 76 98 76 92 100 100 100 100
100 100 100 100 100 100 100 100 100 100 100 100 100 100 99 15 41 100 100 100 100 100 100 100 100 100 100 100 100 100 100 100 100 100 100 100 100 100 100 100 100 100 100 100 100 100 100 100 100
100 99 98 100 100 100 100 100 100 100 100 100 100 96 93 86 45 100 100 100 100 100 100 100 100 100 100 100 100 100 100 100 100 100 100 100 100 100 100 100 100 100 100 100 100 100 100 100 83
100 86 85 82 99 76 100 100 100 100 100 100 100 100 100 100 100 100 100 100 100 100 100 100 100 100 100 100 100 100 100 100 100 100 100 100 100 100 100 100 100 100 100 100 100 100 100 100 66
100 97 96 96 97 98 100 100 100 100 98 100 100 100 100 100 100 100 100 100 100 100 100 100 100 100 100 100 100 100 100 100 100 100 100 100 100 100 99 100 100 100 100 100 100 100 100 94 92
100 100 100 96 92 85 100 100 100 100 100 100 100 100 100 100 100 100 100 100 100 100 100 100 100 100 100 100 100 100 100 100 100 100 100 100 100 100 100 100 100 100 100 100 100 100 100 100 100